[[{"header":{"parameterUnit":"m.s-1","parameterCategory":1,"la1":30.2991,"la2":30.254,"lo1":-89.0895,"lo2":-89.0444,"dy":0.0017,"dx":0.0017,"nx":28,"ny":28,"refTime":"2025-08-27T03:00:00:Z","depth":0,"parameterNumber":2,"parameterNumberName":"U-component_of_WINDS"},"data":[0,0,0,0,0,0,0,0,0,0,0,0,0,0,0,0,0,0,0,0,0,0,0,0,0,0,0,0,0,0,0,0,0,0,0,0,0,0,0,0,0,0,0,0,0,0,0,0,0,0,0,0,0,0,0,0,0,0,-4.2953,-4.2953,0,-4.2965,-4.2966,-4.2966,-4.282,-4.2816,-4.2812,-4.2808,-4.2821,-4.2825,-4.2829,0,0,0,0,0,0,0,0,0,0,0,0,0,-4.2804,-4.2807,-4.2953,-4.2953,-4.2954,-4.2965,-4.2966,-4.2966,-4.282,-4.2815,-4.2811,-4.2806,-4.282,-4.2825,-4.283,0,0,0,0,0,0,0,0,0,0,0,0,0,-4.2848,-4.2808,-4.2953,-4.2882,-4.2876,-4.2965,-4.2966,-4.2966,-4.2821,-4.2815,-4.2809,-4.2804,-4.2818,-4.2824,-4.283,-4.2988,0,0,-4.2849,-4.2852,0,0,0,0,0,0,0,0,-4.2846,-4.2853,-4.2893,-4.2887,-4.2881,-4.2885,-4.2918,-4.2973,-4.2823,-4.2842,-4.2808,-4.2801,-4.2847,-4.2851,-4.2866,-4.2989,-4.2989,-4.285,-4.2853,-4.2856,-4.2858,0,0,0,0,0,0,0,-4.2843,-4.2852,-4.2958,-4.2893,-4.2886,-4.285,-4.285,-4.2928,-4.2878,-4.284,-4.2829,-4.2833,-4.2843,-4.2861,-4.2865,-4.299,-4.2849,-4.2855,-4.2859,-4.2861,-4.3242,-4.3248,0,0,0,0,0,0,-4.2849,-4.2851,-4.2958,-4.2958,-4.2848,-4.2858,-4.2857,-4.289,-4.2877,-4.2869,-4.2838,-4.2826,-4.2853,-4.2858,-4.2865,-4.3049,-4.2856,-4.2862,-4.2865,-4.3235,-4.3243,-4.325,0,0,0,0,0,0,-4.2847,-4.286,-4.2957,-4.2902,-4.2911,-4.2866,-4.2904,-4.2893,-4.291,-4.2875,-4.2866,-4.2865,-4.2849,-4.2857,-4.2958,-4.3047,-4.2864,-4.287,-4.3228,-4.3238,-4.3246,-4.3418,0,0,0,0,0,0,-4.2843,-4.286,-4.292,-4.2904,-4.2915,-4.3051,-4.291,-4.2898,-4.2921,-4.2906,-4.2898,-4.2892,-4.2844,-4.295,-4.2965,-4.3052,-4.2875,-4.3219,-4.3232,-4.3243,-4.3404,-4.3432,-4.3456,0,0,0,0,0,-4.2838,-4.2968,-4.2924,-4.2937,-4.2988,-4.3056,-4.3062,-4.3005,-4.2929,-4.2989,-4.2966,-4.2892,-4.3035,-4.2962,-4.2977,-4.3068,-4.3214,-4.3228,-4.3243,-4.3393,-4.3427,-4.3456,0,0,0,0,0,0,-4.2996,-4.2965,-4.2915,-4.3044,-4.3054,-4.3031,-4.3105,-4.3044,-4.3076,-4.306,-4.2988,-4.2987,-4.3101,-4.3094,-4.3013,-4.322,-4.3111,-4.3129,-4.322,-4.3252,-4.3278,-4.3277,-4.288,0,0,0,0,0,-4.3045,-4.3103,-4.3072,-4.3189,-4.3196,-4.315,-4.3178,-4.3133,-4.314,-4.3144,-4.3128,-4.3139,-4.3186,-4.3219,-4.326,-4.3402,-4.3398,-4.3472,-4.3498,-4.352,-4.3537,-4.3611,-4.3643,-4.3297,-4.3297,-4.3297,0,0,-4.3149,-4.3139,-4.318,-4.322,-4.3223,-4.3284,-4.3155,-4.3225,-4.327,-4.3154,-4.3249,-4.3239,-4.3245,-4.3368,-4.3422,-4.3366,-4.3631,-4.3539,-4.3556,-4.3561,-4.3629,-4.3662,-4.3691,-4.3307,-4.3306,-4.3304,0,0,-4.3368,-4.3367,-4.3463,-4.3468,-4.3473,-4.3441,-4.3465,-4.3452,-4.344,-4.3534,-4.3449,-4.3501,-4.3584,-4.3592,-4.3607,-4.3829,-4.3762,-4.3845,-4.3981,-4.4054,-4.4081,-4.4105,-4.4184,-4.4213,-4.3861,-4.3862,-4.3862,0,-4.3496,-4.3584,-4.352,-4.3596,-4.3617,-4.3515,-4.3612,-4.362,-4.3639,-4.3655,-4.3593,-4.3694,-4.3692,-4.3815,-4.3869,-4.3884,-4.3909,-4.3845,-4.4083,-4.4106,-4.4127,-4.4202,-4.4232,-4.3872,-4.3871,-4.387,-4.3869,0,-4.3741,-4.3804,-4.3881,-4.3902,-4.393,-4.4017,-4.3966,-4.4003,-4.3956,-4.3931,-4.4028,-4.4021,-4.4059,-4.4084,-4.4039,-4.4201,-4.4167,-4.4095,-4.3984,-4.4171,-4.424,-4.4268,-4.3886,-4.3882,-4.3879,-4.3877,0,0,-4.4061,-4.4044,-4.4073,-4.4081,-4.4079,-4.4126,-4.4208,-4.4245,-4.4278,-4.4294,-4.4361,-4.4433,-4.4366,-4.4383,-4.4338,-4.4402,-4.4578,-4.4322,-4.4321,-4.437,-4.4756,-4.481,-4.4844,-4.4533,-4.4539,-4.4543,-4.4755,0,-4.4274,-4.4412,-4.4356,-4.4499,-4.4556,-4.446,-4.4531,-4.4537,-4.4516,-4.4561,-4.4537,-4.459,-4.4498,-4.4507,-4.4567,-4.4544,-4.4655,-4.4528,-4.4594,-4.4598,-4.4596,-4.488,-4.4937,-4.5138,-4.4782,-4.4786,-4.4789,0,-4.4541,-4.4568,-4.4717,-4.4704,-4.4726,-4.4791,-4.4819,-4.4864,-4.4869,-4.4849,-4.4869,-4.4808,-4.4887,-4.4777,-4.4885,-4.48,-4.4824,-4.4817,-4.4823,-4.4827,-4.4705,-4.4891,-4.5201,-4.5231,-4.4831,-4.4828,-4.4825,0,-4.4759,-4.4832,-4.493,-4.494,-4.4928,-4.4975,-4.4973,-4.4972,-4.4997,-4.5023,-4.5038,-4.5073,-4.5092,-4.5121,-4.5071,-4.4996,-4.5186,-4.5072,-4.5171,-4.5173,-4.5216,-4.5214,-4.5533,-4.5232,-4.5232,-4.5231,-4.523,0,-4.5003,-4.5098,-4.5028,-4.5089,-4.5191,-4.5127,-4.5231,-4.5217,-4.5217,-4.5273,-4.5192,-4.5246,-4.5178,-4.5226,-4.5188,-4.5283,-4.5292,-4.5278,-4.5267,-4.5285,-4.5287,-4.53,-4.5285,-4.5239,-4.5237,-4.5236,-4.5234,0,-4.5264,-4.5221,-4.5321,-4.5301,-4.5298,-4.5375,-4.5358,-4.5413,-4.5386,-4.5458,-4.5471,-4.5428,-4.548,-4.5434,-4.5484,-4.5459,-4.5585,-4.5553,-4.5583,-4.5574,-4.5676,-4.5667,-4.6015,-4.6057,-4.5729,-4.5733,-4.5735,0,-4.5422,-4.5492,-4.548,-4.5511,-4.5513,-4.5566,-4.5591,-4.553,-4.556,-4.5571,-4.5625,-4.567,-4.5702,-4.579,-4.5763,-4.5801,-4.577,-4.5889,-4.5775,-4.5791,-4.5771,-4.5768,-4.5774,-4.5913,-4.5917,-4.592,-4.5922,0,-4.5707,-4.5683,-4.5722,-4.5755,-4.5788,-4.5811,-4.5827,-4.5858,-4.5795,-4.5832,-4.5884,-4.591,-4.5961,-4.6006,-4.6036,-4.6032,-4.5968,-4.5958,-4.5983,-4.6003,-4.6017,-4.601,-4.5646,-4.5951,-4.5948,-4.5946,-4.5944,-4.5943,-4.5921,-4.5979,-4.5979,-4.6026,-4.6032,-4.6049,-4.61,-4.6079,-4.6121,-4.6157,-4.6118,-4.6182,-4.6184,-4.6217,-4.6221,-4.627,-4.622,-4.6256,-4.6265,-4.6275,-4.629,-4.601,-4.6275,-4.6274,-4.6273,-4.6273,-4.6272,0,-4.6202,-4.6197,-4.6241,-4.6266,-4.6303,-4.6239,-4.6253,-4.6289,-4.6345,-4.6353,-4.6387,-4.6446,-4.649,-4.6467,-4.6505,-4.6548,-4.652,-4.656,-4.6556,-4.6557,-4.6333,-4.6307,-4.6583,-4.6583,-4.6583,-4.6583,-4.6583,-4.6583,-4.6352,-4.6447,-4.6422,-4.6518,-4.6512,-4.6574,-4.6588,-4.6603,-4.6609,-4.6679,-4.6715,-4.6699,-4.6695,-4.6732,-4.6769,-4.6761,-4.6778,-4.683,-4.6812,-4.6603,-4.6572,-4.6543,-4.6519,-4.6835,-4.6835,-4.7031,-4.7033,-4.7035]},{"header":{"parameterUnit":"m.s-1","parameterCategory":1,"la1":30.2991,"la2":30.254,"lo1":-89.0895,"lo2":-89.0444,"dy":0.0017,"dx":0.0017,"nx":28,"ny":28,"refTime":"2025-08-27T03:00:00:Z","depth":0,"parameterNumber":3,"parameterNumberName":"V-component_of_WINDS"},"data":[0,0,0,0,0,0,0,0,0,0,0,0,0,0,0,0,0,0,0,0,0,0,0,0,0,0,0,0,0,0,0,0,0,0,0,0,0,0,0,0,0,0,0,0,0,0,0,0,0,0,0,0,0,0,0,0,0,0,-2.9394,-2.9394,0,-2.9435,-2.9436,-2.9436,-2.942,-2.9419,-2.9418,-2.9417,-2.9457,-2.9459,-2.9461,0,0,0,0,0,0,0,0,0,0,0,0,0,-2.9297,-2.9299,-2.9394,-2.9394,-2.9395,-2.9435,-2.9436,-2.9436,-2.942,-2.9419,-2.9417,-2.9416,-2.9457,-2.9459,-2.9461,0,0,0,0,0,0,0,0,0,0,0,0,0,-2.9339,-2.93,-2.9394,-2.9392,-2.9392,-2.9435,-2.9436,-2.9436,-2.942,-2.9419,-2.9417,-2.9416,-2.9456,-2.9459,-2.9462,-2.9509,0,0,-2.9471,-2.9472,0,0,0,0,0,0,0,0,-2.9337,-2.9342,-2.9391,-2.9392,-2.9392,-2.9421,-2.9416,-2.9461,-2.942,-2.9409,-2.9417,-2.9415,-2.9446,-2.945,-2.9461,-2.9511,-2.9512,-2.9471,-2.9473,-2.9474,-2.9475,0,0,0,0,0,0,0,-2.9334,-2.9341,-2.941,-2.9392,-2.9393,-2.9387,-2.9392,-2.9425,-2.9435,-2.941,-2.9409,-2.9414,-2.9446,-2.9458,-2.9461,-2.9513,-2.9471,-2.9473,-2.9475,-2.9476,-2.9601,-2.9603,0,0,0,0,0,0,-2.9331,-2.9338,-2.9409,-2.9411,-2.936,-2.939,-2.9395,-2.9413,-2.9435,-2.9437,-2.9415,-2.9413,-2.9454,-2.9458,-2.9463,-2.9518,-2.9474,-2.9477,-2.9478,-2.96,-2.9602,-2.9603,0,0,0,0,0,0,-2.9329,-2.9337,-2.9407,-2.9375,-2.9383,-2.9394,-2.9414,-2.9415,-2.9426,-2.9439,-2.944,-2.9426,-2.9453,-2.9459,-2.9497,-2.9519,-2.9478,-2.9481,-2.9598,-2.9601,-2.9603,-2.963,0,0,0,0,0,0,-2.9326,-2.9337,-2.9356,-2.9375,-2.9385,-2.9442,-2.9415,-2.9416,-2.9432,-2.9429,-2.9449,-2.9451,-2.9452,-2.9493,-2.95,-2.9523,-2.9483,-2.9596,-2.9599,-2.9602,-2.9627,-2.9633,-2.9638,0,0,0,0,0,-2.9323,-2.9362,-2.9357,-2.9366,-2.9409,-2.9443,-2.9449,-2.945,-2.9434,-2.9452,-2.946,-2.945,-2.9516,-2.9497,-2.9505,-2.9529,-2.9595,-2.9598,-2.9602,-2.9625,-2.9632,-2.9638,0,0,0,0,0,0,-2.9345,-2.9364,-2.9359,-2.9406,-2.9423,-2.944,-2.9464,-2.9457,-2.9479,-2.9476,-2.9475,-2.948,-2.9519,-2.9528,-2.9506,-2.9574,-2.9553,-2.9558,-2.9567,-2.9574,-2.9579,-2.9576,-2.9485,0,0,0,0,0,-2.9355,-2.9382,-2.9398,-2.9437,-2.9446,-2.9453,-2.9468,-2.9468,-2.9485,-2.9492,-2.9503,-2.9519,-2.9543,-2.9559,-2.9583,-2.9628,-2.9631,-2.9648,-2.9654,-2.9658,-2.9662,-2.9685,-2.9693,-2.9615,-2.9615,-2.9615,0,0,-2.9377,-2.9391,-2.9408,-2.9442,-2.9455,-2.9482,-2.946,-2.9489,-2.9509,-2.9496,-2.9533,-2.9541,-2.956,-2.9602,-2.9621,-2.961,-2.9684,-2.9663,-2.9666,-2.9668,-2.969,-2.9697,-2.9703,-2.9617,-2.9617,-2.9616,0,0,-2.9429,-2.9443,-2.9477,-2.949,-2.9511,-2.9515,-2.9523,-2.9541,-2.9546,-2.9583,-2.9574,-2.9596,-2.9639,-2.9651,-2.9664,-2.9719,-2.971,-2.9727,-2.9754,-2.9777,-2.9783,-2.9788,-2.9806,-2.9813,-2.9731,-2.9731,-2.9731,0,-2.9453,-2.9494,-2.9495,-2.9525,-2.9539,-2.9529,-2.9562,-2.9575,-2.9602,-2.9611,-2.9599,-2.9651,-2.9663,-2.9706,-2.972,-2.973,-2.9738,-2.9724,-2.9782,-2.9787,-2.9792,-2.981,-2.9817,-2.9733,-2.9733,-2.9732,-2.9732,0,-2.9521,-2.955,-2.9574,-2.96,-2.9617,-2.9649,-2.9653,-2.967,-2.9667,-2.9673,-2.9709,-2.9723,-2.9748,-2.9758,-2.9756,-2.9801,-2.9794,-2.9782,-2.976,-2.9802,-2.9818,-2.9825,-2.9735,-2.9735,-2.9734,-2.9734,0,0,-2.959,-2.9614,-2.9623,-2.9634,-2.9655,-2.9676,-2.9706,-2.9731,-2.9745,-2.9763,-2.9787,-2.9822,-2.9811,-2.9825,-2.9824,-2.9843,-2.9884,-2.9829,-2.9829,-2.9838,-2.9933,-2.9941,-2.9949,-2.9879,-2.988,-2.9881,-2.9931,0,-2.9643,-2.9696,-2.9697,-2.9746,-2.977,-2.9761,-2.9787,-2.9801,-2.9807,-2.9828,-2.9833,-2.9858,-2.9842,-2.985,-2.9869,-2.9875,-2.9903,-2.9872,-2.99,-2.9901,-2.9895,-2.9957,-2.9966,-3.0012,-2.9937,-2.9938,-2.9939,0,-2.9712,-2.9732,-2.9783,-2.9799,-2.9809,-2.9833,-2.9854,-2.9875,-2.9891,-2.9893,-2.9908,-2.9903,-2.9932,-2.991,-2.9949,-2.9928,-2.9939,-2.9944,-2.9945,-2.9947,-2.9922,-2.9959,-3.0027,-3.0034,-2.9949,-2.9949,-2.9948,0,-2.9754,-2.9795,-2.983,-2.9839,-2.9859,-2.9875,-2.9884,-2.9898,-2.9912,-2.9931,-2.994,-2.9961,-2.9973,-2.9989,-2.999,-2.9974,-3.0029,-3.0007,-3.003,-3.003,-3.0042,-3.0041,-3.0111,-3.0051,-3.0051,-3.0051,-3.0051,0,-2.9813,-2.9844,-2.9849,-2.9871,-2.9905,-2.9904,-2.9938,-2.9945,-2.9958,-2.9979,-2.9972,-2.9993,-2.9993,-3.0013,-3.0014,-3.0045,-3.0051,-3.0053,-3.0052,-3.0053,-3.0052,-3.0059,-3.0056,-3.0053,-3.0052,-3.0052,-3.0052,0,-2.9866,-2.9871,-2.9908,-2.9923,-2.9928,-2.9952,-2.9964,-2.9984,-2.9988,-3.0016,-3.0022,-3.0028,-3.0052,-3.0054,-3.0082,-3.0082,-3.0119,-3.0116,-3.0114,-3.0113,-3.0136,-3.0133,-3.0212,-3.0222,-3.0157,-3.0157,-3.0158,0,-2.9903,-2.9927,-2.9944,-2.9958,-2.9967,-2.9991,-3.0005,-3.0005,-3.002,-3.0039,-3.0056,-3.0078,-3.0097,-3.0134,-3.0141,-3.0161,-3.0158,-3.0184,-3.0161,-3.016,-3.0156,-3.0154,-3.0156,-3.0188,-3.0189,-3.0189,-3.019,0,-2.9967,-2.9967,-2.9988,-3.001,-3.0027,-3.0043,-3.0059,-3.0071,-3.0073,-3.0089,-3.0113,-3.0127,-3.0155,-3.0177,-3.0197,-3.0204,-3.0197,-3.0197,-3.0203,-3.0203,-3.0201,-3.0201,-3.0125,-3.0195,-3.0195,-3.0194,-3.0194,-3.0194,-3.0012,-3.0032,-3.0046,-3.0069,-3.0081,-3.0095,-3.0114,-3.012,-3.0141,-3.0163,-3.0162,-3.0188,-3.0201,-3.0227,-3.0236,-3.0255,-3.0247,-3.0256,-3.0258,-3.026,-3.0262,-3.0198,-3.0259,-3.0259,-3.0259,-3.0259,-3.0259,0,-3.0074,-3.0083,-3.0104,-3.0126,-3.0143,-3.0135,-3.0151,-3.0166,-3.0189,-3.0203,-3.0221,-3.0247,-3.0268,-3.0276,-3.0296,-3.031,-3.0307,-3.0315,-3.0313,-3.0315,-3.0269,-3.0261,-3.0317,-3.0317,-3.0317,-3.0317,-3.0317,-3.0317,-3.0108,-3.0141,-3.0143,-3.0181,-3.0189,-3.0214,-3.0224,-3.0237,-3.0247,-3.0277,-3.0295,-3.03,-3.031,-3.0331,-3.0349,-3.0351,-3.0358,-3.0367,-3.0367,-3.0324,-3.0318,-3.0313,-3.0305,-3.0369,-3.0369,-3.0411,-3.0411,-3.0412]}]]